Miscellaneous Local Product
Issued by NWS Hastings, NE

Home | Current Version | Previous Version | Graphics & Text | Print | Product List | Glossary On
Versions: 1 2 3 4 5 6 7 8 9 10 11 12 13 14 15 16 17 18 19 20 21 22 23 24 25 26 27 28 29 30 31 32 33 34 35 36 37 38 39 40 41 42 43 44 45 46 47 48 49 50
128
AXUS43 KGID 010502
MISGRI

GID CWA HOURLY WEATHER ROUNDUP
NATIONAL WEATHER SERVICE HASTINGS NE
1200 AM CDT SUN MAY 01 2016

NOTE: "FAIR" INDICATES FEW OR NO CLOUDS BELOW 12,000 FEET WITH NO
SIGNIFICANT WEATHER AND/OR OBSTRUCTIONS TO VISIBILITY.

...SOUTH CENTRAL NEBRASKA...

CITY           SKY/WX    TMP DP  RH WIND       PRES   REMARKS
GRAND ISLAND   CLOUDY    44  42  93 N17G23    29.91R FOG
HASTINGS       CLOUDY    46  44  93 N10       29.88R
KEARNEY        CLOUDY    45  41  87 N18G26    29.91R
ORD            LGT RAIN  41  39  93 NE20G28   29.96R
YORK           LGT RAIN  46  46 100 N12       29.88R
AURORA         CLOUDY    46  45  98 N15       29.89R FOG
LEXINGTON      LGT RAIN  42  40  93 N17       29.95R
HOLDREGE       CLOUDY    40  39  95 NW12      29.91R WCI  33
HEBRON         CLOUDY    48  45  90 W3        29.87S

...NEBRASKA PANHANDLE...

CITY           SKY/WX    TMP DP  RH WIND       PRES   REMARKS
CHADRON        LGT RAIN  41  37  86 NE6       30.20R
ALLIANCE       FLURRIES  33  32  96 N14       30.14R WCI  23
SCOTTSBLUFF    LGT RAIN  38  34  85 N13       30.19R WCI  30
SIDNEY         MIX PCPN  34  32  92 N22       30.12R WCI  22

...WESTERN AND NORTH CENTRAL NEBRASKA...

CITY           SKY/WX    TMP DP  RH WIND       PRES   REMARKS
VALENTINE      LGT RAIN  39  36  89 NE18G28   30.12R WCI  30
AINSWORTH      DRIZZLE   39  37  95 NE23G33   30.08R WCI  28
ONEILL         LGT RAIN  42  40  94 NE18G24   30.03R
BROKEN BOW     RAIN      41  39  93 N16G22    29.97R
IMPERIAL       LGT RAIN  35  33  92 N18       30.05R WCI  24
NORTH PLATTE   LGT SNOW  34  32  92 N16       30.01R FOG     WCI  24
MCCOOK         CLOUDY    38  34  85 NW16      29.99R WCI  29

...EASTERN NEBRASKA...

CITY           SKY/WX    TMP DP  RH WIND       PRES   REMARKS
NORFOLK        LGT RAIN  43  40  89 NE17      29.95R
SO SIOUX CITY  LGT RAIN  45  41  86 E15G28    29.98R
TEKAMAH        LGT RAIN  46  44  93 NE16      29.93R
COLUMBUS       CLOUDY    45  37  76 NE17      29.92R
ALBION         RAIN      42  41  94 NE17G28   29.95R
OMAHA EPPLEY   CLOUDY    49  47  93 NE10      29.89R
OFFUTT AFB     CLOUDY    49  49  99 NE7       29.87R
MILLARD        DRIZZLE   49  48  95 NE3       29.88R
LINCOLN        CLOUDY    50  49  96 NE10      29.87R
NEBRASKA CITY  CLOUDY    51  51 100 CALM      29.86S
BEATRICE       CLOUDY    49  47  93 W7        29.86S
FALLS CITY     CLOUDY    54  49  83 W5        29.86R

...NORTHERN KANSAS...

CITY           SKY/WX    TMP DP  RH WIND       PRES   REMARKS
GOODLAND       CLOUDY    35  33  92 N22G33    30.01R WCI  23
HILL CITY      CLOUDY    41  36  82 NW13      29.97R
NORTON         CLOUDY    37  32  81 NW16G22   29.95S WCI  28
PHILLIPSBURG   CLOUDY    43  37  81 NW9G16    29.94S
SMITH CENTER   CLOUDY    41  39  93 NW13      29.92S
BELOIT         CLOUDY    45  41  87 W7        29.90S
HAYS           CLOUDY    43  32  65 NW9       29.95S
RUSSELL        CLOUDY    44  39  82 W10       29.92R
CONCORDIA      CLOUDY    48  43  82 W9        29.89S
SALINA         CLOUDY    50  43  77 W9        29.92R
TOPEKA         CLOUDY    54  45  71 W6        29.88R



USA.gov is the U.S. government's official web portal to all federal, state and local government web resources and services.